Weather in Aleksandriya

Russia / Stavropol Krai     45°05′29″N   43°14′39″E
temp.,
°C
wind,
m/s
gust,
m/s
humid.,
%
clouds,
%
prec.,
mm/h
press.,
hPa
HPBL,
m
24 june, thu
thu2400:00+20e23510 0.0 101328
03:00+18ene11555 0.0 101311
06:00+21n1157100 0.0 101334
09:00+25nne22440 0.0 1013634
12:00+30ese12370 0.0 10121040
15:00+32sse35310 0.0 10111539
18:00+30wsw46484 0.0 1011182
21:00+24wnw33601 0.0 101238
25 june, fri
fri2500:00+22wnw2263100 0.0 101212
03:00+22wnw2264100 0.0 101112
06:00+23nw236790 0.0 101289
09:00+27n445375 0.0 1011645
12:00+31n34300 0.0 10111623
15:00+33nne24220 0.0 10091991
18:00+30wnw58420 0.0 1008194
21:00+24wnw511480 0.0 1009163
26 june, sat
sat2600:00+23wnw511640 0.0 1008164
03:00+21w51172100 0.0 1008187
06:00+22wnw51177100 0.0 1008295
09:00+27wnw676098 0.0 1009712
12:00+30nw654621 0.0 10081285
15:00+32nw5542100 0.0 10071671
18:00+29wnw58555 0.0 1007419
21:00+24wnw410701 0.0 1008195
27 june, sun
sun2700:00+23wnw61180100 0.0 1007260
03:00+22wnw51184100 0.0 1008259
06:00+23wnw61282100 0.0 1009401
09:00+26wnw7866100 0.0 1010865
12:00+30wnw66475 0.0 10101180
15:00+31nw5545100 0.0 10091553
18:00+29wnw465495 0.0 1010452
21:00+24wnw476694 0.0 1011109
28 june, mon
mon2800:00+23nw4876100 0.0 1010155
03:00+22wnw478218 0.0 1011158
06:00+22wnw597914 0.0 1012292
09:00+26wnw456288 0.0 1012727
12:00+30nw33537 0.0 10121433
15:00+31nw334629 0.0 10111860
18:00+30wnw3555100 0.0 1011228
21:00+24wnw477298 0.5 1011126